• Join FlightAware (Why Join?)
  • Login
  • US Flag 
03:09AM EDT


 

Airport Tracker/Info


-or-


 

Live Flight TrackerFlight Track Log ✈ EJM685 ✈ 26-Jun-2013 ✈ KLAX - KTEB

Flight Track Log - Related Links

Times and Time Zones

All times are in EDT time to prevent confusion due to time zone crossing. See the EJM685 flight status page for this flight to view local times or setup timezone preferences in your user account.

Time Position Orientation Groundspeed Altitude Reporting Facility
EDT Latitude Longitude Course Direction KTS MPH feet Rate Location/Type
11:37AM 33.9325 -118.4536 51° Northeast 209 241 3,100  Level Los Angeles Center
11:38AM 33.9114 -118.5233 250° West 225 259 4,800 1,740 Climbing Los Angeles Center
11:39AM 33.8681 -118.5881 231° Southwest 243 280 6,800 2,400 Climbing Los Angeles Center
11:40AM 33.8194 -118.5475 145° Southeast 262 302 9,800 2,340 Climbing Los Angeles Center
11:41AM 33.8839 -118.4653 47° Northeast 334 384 11,700 2,040 Climbing Los Angeles Center
11:42AM 33.9653 -118.3800 41° Northeast 381 438 14,100 2,460 Climbing Los Angeles Center
11:43AM 34.4539 -117.7107 51° Northeast  Level FlightAware Approximate
11:43AM 34.0261 -118.2708 56° Northeast 388 447 16,800  Level Los Angeles Center
11:45AM 34.0908 -118.1578 55° Northeast 403 464 18,900 2,040 Climbing Los Angeles Center
11:46AM 34.1567 -118.0400 56° Northeast 418 481 21,100 2,220 Climbing Los Angeles Center
11:47AM 34.2253 -117.9181 56° Northeast 435 501 23,600 2,280 Climbing Los Angeles Center
11:48AM 34.2953 -117.7919 56° Northeast 448 516 25,800 2,040 Climbing Los Angeles Center
11:49AM 34.3683 -117.6639 55° Northeast 460 529 27,800 1,920 Climbing Los Angeles Center
11:50AM 34.4597 -117.5361 49° Northeast 475 547 29,800 1,980 Climbing Los Angeles Center
11:51AM 34.5456 -117.4119 50° Northeast 481 554 32,000 2,100 Climbing Los Angeles Center
11:52AM 34.6478 -117.2642 50° Northeast 481 554 34,200 1,980 Climbing Los Angeles Center
11:53AM 34.7372 -117.1375 49° Northeast 486 559 36,100 1,800 Climbing Los Angeles Center
11:54AM 34.8039 -117.0417 50° Northeast 482 555 37,900 2,040 Climbing Los Angeles Center
11:55AM 34.9025 -116.8981 50° Northeast 464 534 40,400 1,920 Climbing Los Angeles Center
11:56AM 34.9828 -116.7836 49° Northeast 449 517 42,000 1,020 Climbing Los Angeles Center
11:57AM 35.0794 -116.6431 50° Northeast 452 520 42,600 480 Climbing Los Angeles Center
11:58AM 35.1614 -116.5222 50° Northeast 459 528 43,000 180 Climbing Los Angeles Center
11:59AM 35.2433 -116.3989 51° Northeast 466 536 43,000  Level Los Angeles Center
12:00PM 35.3281 -116.2744 50° Northeast 473 544 43,000 240 Level Los Angeles Center
12:01PM 35.4139 -116.1508 50° Northeast 477 549 43,500 540 Climbing Los Angeles Center
12:02PM 35.5153 -116.0006 50° Northeast 477 549 44,200 720 Climbing Los Angeles Center
12:03PM 35.5986 -115.8761 51° Northeast 474 545 45,000 360 Climbing Los Angeles Center
12:04PM 35.6789 -115.7647 48° Northeast 460 529 45,000  Level Los Angeles Center
12:05PM 35.7606 -115.6414 51° Northeast 462 532 45,000  Level Los Angeles Center
12:06PM 35.8589 -115.4925 51° Northeast 468 539 45,000  Level Los Angeles Center
12:07PM 35.9411 -115.3672 51° Northeast 471 542 45,000  Level Los Angeles Center
12:08PM 36.0239 -115.2436 50° Northeast 472 543 45,000  Level Los Angeles Center
12:09PM 36.0897 -115.1436 51° Northeast 472 543 45,000  Level Los Angeles Center
12:10PM 36.2006 -115.0050 45° Northeast 474 545 45,000  Level Los Angeles Center
12:11PM 36.3106 -114.8653 46° Northeast 475 547 45,000  Level Los Angeles Center
12:12PM 36.4019 -114.7472 46° Northeast 475 547 45,000  Level Los Angeles Center
12:13PM 36.4928 -114.6286 46° Northeast 475 547 45,000  Level Los Angeles Center
12:15PM 36.5836 -114.5100 46° Northeast 474 545 45,000  Level Los Angeles Center
12:16PM 36.6728 -114.3917 47° Northeast 470 541 45,000  Level Los Angeles Center
12:17PM 36.7850 -114.2547 44° Northeast 470 541 45,000  Level Los Angeles Center
12:18PM 36.8967 -114.1664 32° Northeast 471 542 45,000  Level Los Angeles Center
12:19PM 36.9864 -114.0433 48° Northeast 476 548 45,000  Level Los Angeles Center
12:20PM 37.0703 -113.9178 50° Northeast 473 544 45,000  Level Los Angeles Center
12:21PM 37.1533 -113.7961 49° Northeast 472 543 45,000  Level Los Angeles Center
12:22PM 37.2561 -113.6444 50° Northeast 473 544 45,000  Level Los Angeles Center
12:23PM 37.3408 -113.5200 49° Northeast 471 542 45,000  Level Los Angeles Center
12:24PM 37.4261 -113.3939 50° Northeast 471 542 45,000  Level Los Angeles Center
12:25PM 37.5128 -113.2644 50° Northeast 477 549 45,000  Level Los Angeles Center
12:26PM 37.5989 -113.1356 50° Northeast 477 549 45,000  Level Los Angeles Center
12:27PM 37.6886 -113.0083 48° Northeast 475 547 45,000  Level Los Angeles Center
12:28PM 37.7781 -112.8714 50° Northeast 491 565 45,000 240 Level Los Angeles Center
12:29PM 37.8647 -112.7392 50° Northeast 486 559 45,500 480 Climbing Los Angeles Center
12:30PM 37.9497 -112.6083 50° Northeast 481 554 46,000 480 Climbing Los Angeles Center
12:31PM 38.0661 -112.4292 50° Northeast 471 542 46,700 420 Climbing Salt Lake Center
12:32PM 38.1492 -112.3011 50° Northeast 470 541 47,000 120 Climbing Salt Lake Center
12:33PM 38.2494 -112.1461 50° Northeast 472 543 47,000  Level Salt Lake Center
12:34PM 38.3153 -112.0039 59° Northeast 472 543 47,000  Level Salt Lake Center
12:36PM 38.3425 -111.8381 78° East 477 549 47,000  Level Salt Lake Center
12:37PM 38.3642 -111.6817 80° East 476 548 47,000  Level Salt Lake Center
12:38PM 38.3900 -111.5067 79° East 476 548 47,000  Level Salt Lake Center
12:39PM 38.4142 -111.3408 79° East 476 548 47,000  Level Salt Lake Center
12:40PM 38.4381 -111.1744 80° East 476 548 47,000  Level Salt Lake Center
12:41PM 38.4661 -110.9736 80° East 479 551 47,000  Level Salt Lake Center
12:42PM 38.4897 -110.8050 80° East 478 550 47,000  Level Salt Lake Center
12:43PM 38.5114 -110.6450 80° East 479 551 47,000  Level Salt Lake Center
12:44PM 38.5375 -110.4569 80° East 480 552 47,000  Level Salt Lake Center
12:45PM 38.5589 -110.2953 80° East 483 556 47,000  Level Salt Lake Center
12:46PM 38.5792 -110.1328 81° East 482 555 47,000  Level Denver Center
12:47PM 38.6056 -109.9442 80° East 483 556 47,000  Level Denver Center
12:48PM 38.6250 -109.7797 81° East 488 562 47,000  Level Denver Center
12:49PM 38.6500 -109.5906 80° East 485 558 47,000  Level Denver Center
12:50PM 38.6697 -109.4236 81° East 492 566 47,000  Level Denver Center
12:51PM 38.6942 -109.2353 81° East 483 556 47,000  Level Denver Center
12:52PM 38.7139 -109.0728 81° East 484 557 47,000  Level Denver Center
12:53PM 38.7375 -108.8847 81° East 481 554 47,000  Level Denver Center
12:54PM 38.7542 -108.7483 81° East 485 558 47,000  Level Denver Center
12:55PM 38.7794 -108.5325 81° East 483 556 47,000  Level Denver Center
12:56PM 38.7992 -108.3669 81° East 491 565 47,000  Level Denver Center
12:57PM 38.8222 -108.1742 81° East 493 567 47,000  Level Denver Center
12:58PM 38.8447 -107.9836 81° East 488 562 47,000  Level Denver Center
12:59PM 38.8661 -107.7925 82° East 486 559 47,000  Level Denver Center
01:00PM 38.8856 -107.6289 81° East 486 559 47,000  Level Denver Center
01:02PM 38.9069 -107.4358 82° East 489 563 47,000  Level Denver Center
01:03PM 38.9239 -107.2708 82° East 490 564 47,000  Level Denver Center
01:04PM 38.9436 -107.0794 82° East 485 558 47,000  Level Denver Center
01:05PM 38.9611 -106.9125 82° East 491 565 47,000  Level Denver Center
01:06PM 38.9814 -106.7183 82° East 492 566 47,000  Level Denver Center
01:07PM 38.9986 -106.5528 82° East 491 565 47,000  Level Denver Center
01:08PM 39.0186 -106.3608 82° East 487 560 47,000  Level Denver Center
01:09PM 39.0333 -106.1967 83° East 485 558 47,000  Level Denver Center
01:10PM 39.0500 -106.0311 83° East 486 559 47,000  Level Denver Center
01:11PM 39.0700 -105.8242 83° East 488 562 47,000  Level Denver Center
01:12PM 39.0864 -105.6522 83° East 486 559 47,000  Level Denver Center
01:13PM 39.1014 -105.4808 84° East 485 558 47,000  Level Denver Center
01:14PM 39.1181 -105.3089 83° East 485 558 47,000  Level Denver Center
01:15PM 39.1336 -105.1367 83° East 486 559 47,000  Level Denver Center
01:16PM 39.1517 -104.9306 83° East 487 560 47,000  Level Denver Center
01:17PM 39.1661 -104.7597 84° East 486 559 47,000  Level Denver Center
01:18PM 39.1806 -104.5881 84° East 488 562 47,000  Level Denver Center
01:19PM 39.1947 -104.4172 84° East 486 559 47,000  Level Denver Center
01:20PM 39.2086 -104.2444 84° East 488 562 47,000  Level Denver Center
01:21PM 39.2256 -104.0397 84° East 483 556 47,000  Level Denver Center
01:22PM 39.2389 -103.8692 84° East 482 555 47,000  Level Denver Center
01:23PM 39.2525 -103.6972 84° East 483 556 47,000  Level Denver Center
01:24PM 39.2653 -103.5253 84° East 484 557 47,000  Level Denver Center
01:25PM 39.2781 -103.3539 84° East 483 556 47,000  Level Denver Center
01:26PM 39.2928 -103.1497 85° East 479 551 47,000  Level Denver Center
01:27PM 39.3042 -102.9803 85° East 476 548 47,000  Level Denver Center
01:28PM 39.3164 -102.8117 85° East 474 545 47,000  Level Denver Center
01:29PM 39.3339 -102.6372 83° East 469 540 47,000  Level Denver Center
01:30PM 39.3617 -102.4794 77° East 473 544 47,000  Level Denver Center
01:32PM 39.3911 -102.2931 78° East 476 548 47,000  Level Denver Center
01:33PM 39.4169 -102.1336 78° East 474 545 47,000  Level Denver Center
01:34PM 39.4472 -101.9478 78° East 473 544 47,000  Level Denver Center
01:35PM 39.4717 -101.7853 79° East 478 550 47,000  Level Denver Center
01:36PM 39.5017 -101.5986 78° East 476 548 47,000  Level Denver Center
01:37PM 39.5261 -101.4372 79° East 477 549 47,000  Level Denver Center
01:38PM 39.5542 -101.2497 79° East 476 548 47,000  Level Denver Center
01:39PM 39.5783 -101.0881 79° East 479 551 47,000  Level Denver Center
01:40PM 39.6069 -100.8997 79° East 477 549 47,000  Level Denver Center
01:41PM 39.6308 -100.7381 79° East 478 550 47,000  Level Denver Center
01:42PM 39.6581 -100.5489 79° East 479 551 47,000  Level Denver Center
01:43PM 39.6811 -100.3864 80° East 481 554 47,000  Level Denver Center
01:44PM 39.7081 -100.1961 80° East 482 555 47,000  Level Denver Center
01:45PM 39.7314 -100.0336 79° East 481 554 47,000  Level Denver Center
01:46PM 39.7578 -99.8419 80° East 483 556 47,000  Level Denver Center
01:47PM 39.7806 -99.6783 80° East 483 556 47,000  Level Denver Center
01:48PM 39.8067 -99.4856 80° East 485 558 47,000  Level Denver Center
01:49PM 39.8275 -99.3206 81° East 485 558 47,000  Level Denver Center
01:50PM 39.8542 -99.1275 80° East 486 559 47,000  Level Denver Center
01:51PM 39.8756 -98.9628 80° East 485 558 47,000  Level Denver Center
01:52PM 39.8967 -98.7903 81° East 484 557 47,000  Level Minneapolis Center
01:53PM 39.9250 -98.5839 80° East 483 556 47,000  Level Minneapolis Center
01:54PM 39.9475 -98.4117 80° East 484 557 47,000  Level Minneapolis Center
01:55PM 39.9689 -98.2375 81° East 485 558 47,000  Level Minneapolis Center
01:56PM 39.9878 -98.0619 82° East 487 560 47,000  Level Minneapolis Center
01:57PM 40.0103 -97.8878 80° East 488 562 47,000  Level Minneapolis Center
01:58PM 40.0358 -97.6786 81° East 489 563 47,000  Level Minneapolis Center
02:00PM 40.0561 -97.5031 81° East 489 563 47,000  Level Minneapolis Center
02:01PM 40.0758 -97.3292 82° East 488 562 47,000  Level Minneapolis Center
02:02PM 40.0953 -97.1536 82° East 489 563 47,000  Level Minneapolis Center
02:03PM 40.1150 -96.9792 82° East 488 562 47,000  Level Minneapolis Center
02:04PM 40.1342 -96.8053 82° East 487 560 47,000  Level Minneapolis Center
02:05PM 40.1575 -96.5964 82° East 487 560 47,000  Level Minneapolis Center
02:06PM 40.1750 -96.4181 83° East 492 566 47,000  Level Minneapolis Center
02:07PM 40.1947 -96.2442 81° East 487 560 47,000  Level Minneapolis Center
02:08PM 40.2222 -96.0739 78° East 484 557 47,000  Level Minneapolis Center
02:09PM 40.2550 -95.9058 76° East 481 554 47,100  Climbing Minneapolis Center
02:10PM 40.2867 -95.7361 76° East 482 555 47,000 -60 Descending Minneapolis Center
02:11PM 40.3236 -95.5314 77° East 483 556 47,000  Level Minneapolis Center
02:12PM 40.3547 -95.3633 76° East 480 552 47,000  Level Minneapolis Center
02:13PM 40.3853 -95.1936 77° East 480 552 47,000  Level Minneapolis Center
02:14PM 40.4153 -95.0228 77° East 482 555 47,000  Level Minneapolis Center
02:15PM 40.4456 -94.8519 77° East 482 555 47,000  Level Minneapolis Center
02:16PM 40.4811 -94.6464 77° East 483 556 47,000  Level Minneapolis Center
02:17PM 40.5100 -94.4875 77° East 483 556 47,000  Level Minneapolis Center
02:18PM 40.5378 -94.3175 78° East 481 554 47,000  Level Minneapolis Center
02:19PM 40.5667 -94.1467 77° East 482 555 47,000  Level Minneapolis Center
02:20PM 40.6003 -93.9408 78° East 483 556 47,000  Level Minneapolis Center
02:21PM 40.6272 -93.7697 78° East 481 554 47,000  Level Minneapolis Center
02:22PM 40.6567 -93.6025 77° East 477 549 47,000  Level Minneapolis Center
02:23PM 40.6747 -93.4997 77° East 473 544 47,000  Level Chicago Center
02:24PM 40.7053 -93.3306 77° East 475 547 47,000  Level Chicago Center
02:25PM 40.7342 -93.1614 77° East 475 547 47,000  Level Chicago Center
02:26PM 40.7681 -92.9539 78° East 482 555 47,000  Level Chicago Center
02:27PM 40.7975 -92.7825 77° East 481 554 47,000  Level Chicago Center
02:28PM 40.8250 -92.6089 78° East 482 555 47,000  Level Chicago Center
02:29PM 40.8528 -92.4381 78° East 479 551 47,000  Level Chicago Center
02:30PM 40.8803 -92.2678 78° East 476 548 47,000  Level Chicago Center
02:31PM 40.9078 -92.0969 78° East 477 549 47,000  Level Chicago Center
02:32PM 40.9394 -91.8906 78° East 481 554 47,000  Level Chicago Center
02:33PM 40.9667 -91.7186 78° East 481 554 47,000  Level Chicago Center
02:34PM 40.9911 -91.5567 79° East 481 554 47,000  Level Chicago Center
02:35PM 41.0175 -91.3814 79° East 485 558 47,000  Level Chicago Center
02:36PM 41.0436 -91.2056 79° East 484 557 47,000  Level Chicago Center
02:37PM 41.0753 -90.9947 79° East 484 557 47,000  Level Chicago Center
02:38PM 41.1014 -90.8192 79° East 485 558 47,000  Level Chicago Center
02:39PM 41.1281 -90.6425 79° East 486 559 47,000  Level Chicago Center
02:40PM 41.1533 -90.4664 79° East 485 558 47,000  Level Chicago Center
02:41PM 41.1781 -90.2889 79° East 486 559 47,000  Level Chicago Center
02:43PM 41.2031 -90.1147 79° East 480 552 47,000  Level Chicago Center
02:44PM 41.2275 -89.9389 79° East 480 552 47,000  Level Chicago Center
02:45PM 41.2567 -89.7275 80° East 481 554 47,000  Level Chicago Center
02:46PM 41.2814 -89.5519 79° East 481 554 47,000  Level Chicago Center
02:47PM 41.3039 -89.3747 80° East 483 556 47,000  Level Chicago Center
02:48PM 41.3300 -89.1819 80° East 484 557 47,000  Level Chicago Center
02:49PM 41.3494 -89.0094 81° East 480 552 47,000  Level Chicago Center
02:50PM 41.3714 -88.8331 81° East 481 554 47,000  Level Chicago Center
02:51PM 41.3942 -88.6600 80° East 476 548 47,000  Level Chicago Center
02:52PM 41.4156 -88.4856 81° East 479 551 47,000  Level Chicago Center
02:53PM 41.4431 -88.2750 80° East 477 549 47,000  Level Chicago Center
02:54PM 41.4669 -88.1036 79° East 504 580 47,000  Level Chicago Center
02:55PM 41.4858 -87.9283 82° East 478 550 47,000  Level Chicago Center
02:56PM 41.5078 -87.7317 81° East 478 550 47,000  Level Chicago Center
02:57PM 41.5269 -87.5589 82° East 475 547 47,000  Level Chicago Center
02:58PM 41.5478 -87.3817 81° East 482 555 47,000  Level Chicago Center
02:59PM 41.5678 -87.2069 81° East 480 552 47,000  Level Chicago Center
03:00PM 41.5914 -86.9969 81° East 480 552 47,000  Level Chicago Center
03:01PM 41.6103 -86.8203 82° East 483 556 47,000  Level Chicago Center
03:02PM 41.6275 -86.6656 81° East 483 556 47,000  Level Chicago Center
03:03PM 41.6497 -86.4528 82° East 483 556 47,000  Level Chicago Center
03:04PM 41.6686 -86.2736 82° East 487 560 47,000  Level Chicago Center
03:05PM 41.6869 -86.0939 82° East 488 562 47,000  Level Chicago Center
03:06PM 41.7050 -85.9147 82° East 487 560 47,000  Level Chicago Center
03:07PM 41.7242 -85.7331 82° East 490 564 47,000  Level Chicago Center
03:08PM 41.7450 -85.5478 81° East 497 572 47,000  Level Chicago Center
03:09PM 41.7606 -85.3469 84° East 489 563 47,000  Level Chicago Center
03:10PM 41.7811 -85.1686 81° East 515 593 47,000  Level Chicago Center
03:12PM 41.8000 -84.9503 83° East 496 571 47,000  Level Chicago Center
03:13PM 41.8161 -84.7706 83° East 487 560 47,000  Level Chicago Center
03:14PM 41.8319 -84.5900 83° East 489 563 47,000  Level Chicago Center
03:15PM 41.8483 -84.4103 83° East 486 559 47,000  Level Chicago Center
03:16PM 41.8631 -84.2322 84° East 482 555 47,000  Level Chicago Center
03:17PM 41.8794 -84.0506 83° East 489 563 47,000  Level Chicago Center
03:18PM 41.8981 -83.8308 83° East 495 570 47,000  Level Chicago Center
03:19PM 41.9114 -83.6456 84° East 498 573 47,000  Level Chicago Center
03:20PM 41.9267 -83.4356 84° East 490 564 47,000  Level Cleveland Center
03:21PM 41.9433 -83.2547 83° East 490 564 47,000  Level Cleveland Center
03:22PM 41.9533 -83.0878 85° East 490 564 47,000  Level Cleveland Center
03:23PM 41.9656 -82.9039 85° East 495 570 47,000  Level Cleveland Center
03:24PM 41.9817 -82.7200 83° East 495 570 47,000  Level Cleveland Center
03:25PM 41.9933 -82.5361 85° East 495 570 47,000  Level Cleveland Center
03:26PM 41.9961 -82.3600 89° East 495 570 47,000  Level Cleveland Center
03:27PM 42.0114 -82.1706 84° East 495 570 47,000  Level Cleveland Center
03:28PM 42.0097 -81.9889 91° East 489 563 47,000  Level Cleveland Center
03:29PM 42.0078 -81.7875 91° East 489 563 47,000  Level Cleveland Center
03:30PM 42.0033 -81.6086 92° East 489 563 47,000  Level Cleveland Center
03:31PM 42.0006 -81.4242 91° East 489 563 47,000  Level Cleveland Center
03:32PM 41.9956 -81.2397 92° East 484 557 47,000  Level Cleveland Center
03:33PM 41.9861 -81.0608 94° East 479 551 47,000  Level Cleveland Center
03:34PM 41.9742 -80.8764 95° East 489 563 47,000  Level Cleveland Center
03:35PM 41.9642 -80.6978 94° East 489 563 47,000  Level Cleveland Center
03:36PM 41.9536 -80.5328 95° East 489 563 47,000  Level Cleveland Center
03:37PM 41.9389 -80.3486 96° East 489 563 47,000  Level Cleveland Center
03:38PM 41.9281 -80.1700 95° East 489 563 47,000  Level Cleveland Center
03:39PM 41.9147 -79.9833 95° East 489 563 47,000  Level Cleveland Center
03:40PM 41.9031 -79.8047 95° East 483 556 47,000  Level Cleveland Center
03:41PM 41.8869 -79.6097 96° East 482 555 47,000 -720 Level Cleveland Center
03:42PM 41.8750 -79.4231 95° East 482 555 45,600 -1,380 Descending Cleveland Center
03:43PM 41.8628 -79.2700 96° East 474 545 44,300 -1,560 Descending Cleveland Center
03:44PM 41.8503 -79.0836 95° East 481 554 42,500 -1,980 Descending Cleveland Center
03:45PM 41.8306 -78.8778 97° East 491 565 40,400 -1,860 Descending Cleveland Center
03:46PM 41.8172 -78.6942 96° East 496 571 38,800 -1,620 Descending Cleveland Center
03:47PM 41.8039 -78.5164 96° East 496 571 37,200 -1,500 Descending Cleveland Center
03:48PM 41.7858 -78.3303 97° East 496 571 35,900 -900 Descending Cleveland Center
03:49PM 41.7622 -78.0597 97° East 510 587 35,000 -360 Descending New York Center
03:50PM 41.7458 -77.8856 97° East 497 572 35,000  Level New York Center
03:51PM 41.7308 -77.7142 97° East 479 551 35,000  Level New York Center
03:52PM 41.7139 -77.5400 97° East 467 537 35,000  Level New York Center
03:53PM 41.6986 -77.3664 97° East 467 537 35,000 -540 Level New York Center
03:54PM 41.6831 -77.1925 97° East 467 537 34,000 -1,320 Descending New York Center
03:55PM 41.6442 -77.0222 107° East 475 547 32,500 -1,680 Descending New York Center
03:56PM 41.5969 -76.8514 110° East 485 558 30,700 -1,680 Descending New York Center
03:57PM 41.5547 -76.6978 110° East 491 565 29,200 -1,740 Descending New York Center
03:58PM 41.5050 -76.5217 111° Southeast 491 565 27,300 -1,800 Descending New York Center
03:59PM 41.4611 -76.3489 109° East 491 565 25,700 -1,680 Descending New York Center
04:00PM 41.4075 -76.1619 111° Southeast 491 565 24,000 -1,680 Descending New York Center
04:01PM 41.3603 -76.0061 112° Southeast 475 547 22,400 -1,680 Descending New York Center
04:02PM 41.3189 -75.8536 110° East 450 518 20,700 -1,620 Descending New York Center
04:03PM 41.2750 -75.7069 112° Southeast 436 502 19,200 -960 Descending New York Center
04:04PM 41.2328 -75.5714 112° Southeast 436 502 18,800 -2,220 Descending New York Center
04:05PM 41.1789 -75.4078 114° Southeast 431 496 14,800 -3,720 Descending New York Center
04:06PM 41.1325 -75.2639 113° Southeast 426 490 11,500 -2,700 Descending New York Center
04:07PM 41.0911 -75.1456 115° Southeast 390 449 9,600 -2,040 Descending New York Center
04:08PM 41.0633 -75.0503 111° Southeast 321 369 7,500 -1,800 Descending New York Center
04:09PM 41.0589 -74.9400 93° East 300 345 6,000 -1,080 Descending New York Center
04:10PM 41.0528 -74.8158 94° East 305 351 5,400 -960 Descending New York Center
04:11PM 41.0517 -74.7222 91° East 291 335 4,200 -1,200 Descending New York Center
04:12PM 41.0472 -74.6064 93° East 284 327 3,100 -600 Descending New York Center
04:13PM 41.0419 -74.5069 94° East 279 321 3,000 -60 Descending New York Center
04:14PM 41.0333 -74.4000 96° East 275 316 3,000  Level New York TRACON
04:15PM 41.0333 -74.3000 90° East 277 319 3,000 -360 Level New York TRACON
04:17PM 41.0333 -74.1167 90° East 225 259 2,000 -360 Descending New York TRACON
04:18PM 41.0000 -74.0667 131° Southeast 204 235 2,000  Level New York TRACON
04:19PM 40.9500 -74.0500 166° South 181 208 2,000 -480 Level New York TRACON
04:20PM 40.9167 -74.0500 180° South 141 162 1,100 -780 Descending New York TRACON
04:21PM 40.8833 -74.0500 180° South 126 145 500 -600 Descending New York TRACON
04:23PM 40.8500 -74.0500 102° East  Level FlightAware Approximate
04:30PM 40.8501 -74.0608 102° East  Level Estimated